Year,Month,Day,Hour,Minute,Value (Times are PST for temperature in C)
2020,03,19,00,00,6.10
2020,03,19,00,01,6.10
2020,03,19,00,02,6.00
2020,03,19,00,03,6.00
2020,03,19,00,04,6.00
2020,03,19,00,05,5.90
2020,03,19,00,06,5.90
2020,03,19,00,07,5.90
2020,03,19,00,08,5.90
2020,03,19,00,09,5.90
2020,03,19,00,10,5.90
2020,03,19,00,11,5.90
2020,03,19,00,12,5.80
2020,03,19,00,13,5.70
2020,03,19,00,14,5.70
2020,03,19,00,15,5.60
2020,03,19,00,16,5.60
2020,03,19,00,17,5.50
2020,03,19,00,18,5.50
2020,03,19,00,19,5.40
2020,03,19,00,20,5.40
2020,03,19,00,21,5.30
2020,03,19,00,22,5.30
2020,03,19,00,23,5.30
2020,03,19,00,24,5.20
2020,03,19,00,25,5.20
2020,03,19,00,26,5.10
2020,03,19,00,27,5.10
2020,03,19,00,28,5.10
2020,03,19,00,29,5.10
2020,03,19,00,30,5.10
2020,03,19,00,31,5.10
2020,03,19,00,32,5.10
2020,03,19,00,33,5.10
2020,03,19,00,34,5.10
2020,03,19,00,35,5.10
2020,03,19,00,36,5.10
2020,03,19,00,37,5.10
2020,03,19,00,38,5.10
2020,03,19,00,39,5.10
2020,03,19,00,40,5.10
2020,03,19,00,41,5.10
2020,03,19,00,42,5.00
2020,03,19,00,43,4.90
2020,03,19,00,44,4.90
2020,03,19,00,45,4.90
2020,03,19,00,46,4.90
2020,03,19,00,47,4.90
2020,03,19,00,48,4.90
2020,03,19,00,49,4.90
2020,03,19,00,50,4.90
2020,03,19,00,51,4.80
2020,03,19,00,52,4.80
2020,03,19,00,53,4.80
2020,03,19,00,54,4.70
2020,03,19,00,55,4.70
2020,03,19,00,56,4.70
2020,03,19,00,57,4.60
2020,03,19,00,58,4.60
2020,03,19,00,59,4.60
2020,03,19,01,00,4.60
2020,03,19,01,01,4.60
2020,03,19,01,02,4.50
2020,03,19,01,03,4.50
2020,03,19,01,04,4.40
2020,03,19,01,05,4.30
2020,03,19,01,06,4.20
2020,03,19,01,07,4.20
2020,03,19,01,08,4.20
2020,03,19,01,09,4.20
2020,03,19,01,10,4.10
2020,03,19,01,11,4.10
2020,03,19,01,12,4.10
2020,03,19,01,13,4.10
2020,03,19,01,14,4.00
2020,03,19,01,15,4.00
2020,03,19,01,16,4.00
2020,03,19,01,17,4.00
2020,03,19,01,18,4.00
2020,03,19,01,19,4.00
2020,03,19,01,20,3.90
2020,03,19,01,21,3.90
2020,03,19,01,22,3.90
2020,03,19,01,23,3.90
2020,03,19,01,24,3.90
2020,03,19,01,25,4.00
2020,03,19,01,26,4.00
2020,03,19,01,27,4.00
2020,03,19,01,28,4.00
2020,03,19,01,29,3.90
2020,03,19,01,30,3.80
2020,03,19,01,31,3.80
2020,03,19,01,32,3.80
2020,03,19,01,33,3.80
2020,03,19,01,34,3.80
2020,03,19,01,35,3.80
2020,03,19,01,36,3.80
2020,03,19,01,37,3.80
2020,03,19,01,38,3.80
2020,03,19,01,39,3.80
2020,03,19,01,40,3.80
2020,03,19,01,41,3.80
2020,03,19,01,42,3.80
2020,03,19,01,43,3.80
2020,03,19,01,44,3.80
2020,03,19,01,45,3.80
2020,03,19,01,46,3.80
2020,03,19,01,47,3.90
2020,03,19,01,48,3.90
2020,03,19,01,49,3.90
2020,03,19,01,50,4.00
2020,03,19,01,51,4.00
2020,03,19,01,52,4.00
2020,03,19,01,53,4.00
2020,03,19,01,54,4.00
2020,03,19,01,55,4.00
2020,03,19,01,56,4.00
2020,03,19,01,57,4.00
2020,03,19,01,58,4.00
2020,03,19,01,59,4.00
2020,03,19,02,00,3.90
2020,03,19,02,01,3.90
2020,03,19,02,02,3.90
2020,03,19,02,03,3.80
2020,03,19,02,04,3.80
2020,03,19,02,05,3.80
2020,03,19,02,06,3.80
2020,03,19,02,07,3.70
2020,03,19,02,08,3.70
2020,03,19,02,09,3.70
2020,03,19,02,10,3.60
2020,03,19,02,11,3.60
2020,03,19,02,12,3.60
2020,03,19,02,13,3.60
2020,03,19,02,14,3.60
2020,03,19,02,15,3.60
2020,03,19,02,16,3.60
2020,03,19,02,17,3.60
2020,03,19,02,18,3.60
2020,03,19,02,19,3.60
2020,03,19,02,20,3.60
2020,03,19,02,21,3.60
2020,03,19,02,22,3.60
2020,03,19,02,23,3.60
2020,03,19,02,24,3.60
2020,03,19,02,25,3.60
2020,03,19,02,26,3.60
2020,03,19,02,27,3.60
2020,03,19,02,28,3.60
2020,03,19,02,29,3.70
2020,03,19,02,30,3.70
2020,03,19,02,31,3.70
2020,03,19,02,32,3.70
2020,03,19,02,33,3.80
2020,03,19,02,34,3.80
2020,03,19,02,35,3.80
2020,03,19,02,36,3.80
2020,03,19,02,37,3.80
2020,03,19,02,38,3.90
2020,03,19,02,39,3.90
2020,03,19,02,40,3.90
2020,03,19,02,41,3.90
2020,03,19,02,42,3.90
2020,03,19,02,43,3.90
2020,03,19,02,44,3.90
2020,03,19,02,45,3.80
2020,03,19,02,46,3.80
2020,03,19,02,47,3.80
2020,03,19,02,48,3.80
2020,03,19,02,49,3.80
2020,03,19,02,50,3.80
2020,03,19,02,51,3.80
2020,03,19,02,52,3.80
2020,03,19,02,53,3.80
2020,03,19,02,54,3.80
2020,03,19,02,55,3.80
2020,03,19,02,56,3.70
2020,03,19,02,57,3.70
2020,03,19,02,58,3.60
2020,03,19,02,59,3.60
2020,03,19,03,00,3.50
2020,03,19,03,01,3.40
2020,03,19,03,02,3.30
2020,03,19,03,03,3.20
2020,03,19,03,04,3.10
2020,03,19,03,05,3.10
2020,03,19,03,06,3.00
2020,03,19,03,07,2.90
2020,03,19,03,08,2.90
2020,03,19,03,09,2.90
2020,03,19,03,10,2.90
2020,03,19,03,11,2.80
2020,03,19,03,12,2.80
2020,03,19,03,13,2.80
2020,03,19,03,14,2.80
2020,03,19,03,15,2.80
2020,03,19,03,16,2.80
2020,03,19,03,17,2.90
2020,03,19,03,18,2.90
2020,03,19,03,19,2.90
2020,03,19,03,20,2.90
2020,03,19,03,21,2.90
2020,03,19,03,22,3.00
2020,03,19,03,23,3.10
2020,03,19,03,24,3.10
2020,03,19,03,25,3.10
2020,03,19,03,26,3.10
2020,03,19,03,27,3.10
2020,03,19,03,28,2.90
2020,03,19,03,29,2.90
2020,03,19,03,30,2.80
2020,03,19,03,31,2.70
2020,03,19,03,32,2.60
2020,03,19,03,33,2.50
2020,03,19,03,34,2.40
2020,03,19,03,35,2.30
2020,03,19,03,36,2.20
2020,03,19,03,37,2.20
2020,03,19,03,38,2.20
2020,03,19,03,39,2.10
2020,03,19,03,40,2.10
2020,03,19,03,41,2.10
2020,03,19,03,42,2.10
2020,03,19,03,43,2.10
2020,03,19,03,44,2.10
2020,03,19,03,45,2.10
2020,03,19,03,46,2.10
2020,03,19,03,47,2.10
2020,03,19,03,48,2.20
2020,03,19,03,49,2.20
2020,03,19,03,50,2.20
2020,03,19,03,51,2.20
2020,03,19,03,52,2.20
2020,03,19,03,53,2.20
2020,03,19,03,54,2.30
2020,03,19,03,55,2.40
2020,03,19,03,56,2.50
2020,03,19,03,57,2.50
2020,03,19,03,58,2.70
2020,03,19,03,59,2.70
2020,03,19,04,00,2.80
2020,03,19,04,01,2.90
2020,03,19,04,02,3.00
2020,03,19,04,03,3.10
2020,03,19,04,04,3.10
2020,03,19,04,05,3.10
2020,03,19,04,06,3.10
2020,03,19,04,07,3.00
2020,03,19,04,08,2.90
2020,03,19,04,09,2.80
2020,03,19,04,10,2.70
2020,03,19,04,11,2.60
2020,03,19,04,12,2.50
2020,03,19,04,13,2.50
2020,03,19,04,14,2.40
2020,03,19,04,15,2.40
2020,03,19,04,16,2.30
2020,03,19,04,17,2.30
2020,03,19,04,18,2.20
2020,03,19,04,19,2.20
2020,03,19,04,20,2.20
2020,03,19,04,21,2.30
2020,03,19,04,22,2.30
2020,03,19,04,23,2.40
2020,03,19,04,24,2.40
2020,03,19,04,25,2.40
2020,03,19,04,26,2.40
2020,03,19,04,27,2.40
2020,03,19,04,28,2.40
2020,03,19,04,29,2.40
2020,03,19,04,30,2.40
2020,03,19,04,31,2.40
2020,03,19,04,32,2.40
2020,03,19,04,33,2.40
2020,03,19,04,34,2.40
2020,03,19,04,35,2.40
2020,03,19,04,36,2.30
2020,03,19,04,37,2.30
2020,03,19,04,38,2.30
2020,03,19,04,39,2.20
2020,03,19,04,40,2.20
2020,03,19,04,41,2.20
2020,03,19,04,42,2.20
2020,03,19,04,43,2.20
2020,03,19,04,44,2.20
2020,03,19,04,45,2.20
2020,03,19,04,46,2.20
2020,03,19,04,47,2.20
2020,03,19,04,48,2.20
2020,03,19,04,49,2.20
2020,03,19,04,50,2.20
2020,03,19,04,51,2.20
2020,03,19,04,52,2.20
2020,03,19,04,53,2.10
2020,03,19,04,54,2.10
2020,03,19,04,55,2.10
2020,03,19,04,56,2.10
2020,03,19,04,57,2.10
2020,03,19,04,58,2.10
2020,03,19,04,59,2.10
2020,03,19,05,00,2.10
2020,03,19,05,01,2.10
2020,03,19,05,02,2.10
2020,03,19,05,03,2.10
2020,03,19,05,04,2.20
2020,03,19,05,05,2.20
2020,03,19,05,06,2.20
2020,03,19,05,07,2.20
2020,03,19,05,08,2.20
2020,03,19,05,09,2.20
2020,03,19,05,10,2.20
2020,03,19,05,11,2.20
2020,03,19,05,12,2.30
2020,03,19,05,13,2.30
2020,03,19,05,14,2.30
2020,03,19,05,15,2.40
2020,03,19,05,16,2.40
2020,03,19,05,17,2.40
2020,03,19,05,18,2.50
2020,03,19,05,19,2.50
2020,03,19,05,20,2.50
2020,03,19,05,21,2.50
2020,03,19,05,22,2.50
2020,03,19,05,23,2.60
2020,03,19,05,24,2.60
2020,03,19,05,25,2.60
2020,03,19,05,26,2.60
2020,03,19,05,27,2.60
2020,03,19,05,28,2.50
2020,03,19,05,29,2.50
2020,03,19,05,30,2.50
2020,03,19,05,31,2.40
2020,03,19,05,32,2.40
2020,03,19,05,33,2.30
2020,03,19,05,34,2.30
2020,03,19,05,35,2.20
2020,03,19,05,36,2.20
2020,03,19,05,37,2.20
2020,03,19,05,38,2.20
2020,03,19,05,39,2.20
2020,03,19,05,40,2.20
2020,03,19,05,41,2.20
2020,03,19,05,42,2.20
2020,03,19,05,43,2.20
2020,03,19,05,44,2.20
2020,03,19,05,45,2.20
2020,03,19,05,46,2.20
2020,03,19,05,47,2.20
2020,03,19,05,48,2.20
2020,03,19,05,49,2.20
2020,03,19,05,50,2.20
2020,03,19,05,51,2.20
2020,03,19,05,52,2.20
2020,03,19,05,53,2.20
2020,03,19,05,54,2.20
2020,03,19,05,55,2.20
2020,03,19,05,56,2.20
2020,03,19,05,57,2.20
2020,03,19,05,58,2.20
2020,03,19,05,59,2.20
2020,03,19,06,00,2.20
2020,03,19,06,01,2.30
2020,03,19,06,02,2.30
2020,03,19,06,03,2.30
2020,03,19,06,04,2.30
2020,03,19,06,05,2.30
2020,03,19,06,06,2.30
2020,03,19,06,07,2.40
2020,03,19,06,08,2.40
2020,03,19,06,09,2.40
2020,03,19,06,10,2.40
2020,03,19,06,11,2.30
2020,03,19,06,12,2.30
2020,03,19,06,13,2.20
2020,03,19,06,14,2.20
2020,03,19,06,15,2.20
2020,03,19,06,16,2.10
2020,03,19,06,17,2.10
2020,03,19,06,18,2.10
2020,03,19,06,19,2.10
2020,03,19,06,20,2.10
2020,03,19,06,21,2.00
2020,03,19,06,22,2.00
2020,03,19,06,23,2.00
2020,03,19,06,24,1.90
2020,03,19,06,25,1.90
2020,03,19,06,26,1.80
2020,03,19,06,27,1.80
2020,03,19,06,28,1.70
2020,03,19,06,29,1.70
2020,03,19,06,30,1.60
2020,03,19,06,31,1.60
2020,03,19,06,32,1.60
2020,03,19,06,33,1.60
2020,03,19,06,34,1.60
2020,03,19,06,35,1.60
2020,03,19,06,36,1.60
2020,03,19,06,37,1.60
2020,03,19,06,38,1.70
2020,03,19,06,39,1.70
2020,03,19,06,40,1.80
2020,03,19,06,41,1.80
2020,03,19,06,42,1.80
2020,03,19,06,43,1.80
2020,03,19,06,44,1.80
2020,03,19,06,45,1.80
2020,03,19,06,46,1.80
2020,03,19,06,47,1.80
2020,03,19,06,48,1.80
2020,03,19,06,49,1.80
2020,03,19,06,50,1.90
2020,03,19,06,51,1.90
2020,03,19,06,52,1.80
2020,03,19,06,53,1.80
2020,03,19,06,54,1.80
2020,03,19,06,55,1.80
2020,03,19,06,56,1.80
2020,03,19,06,57,1.70
2020,03,19,06,58,1.70
2020,03,19,06,59,1.70
2020,03,19,07,00,1.60
2020,03,19,07,01,1.60
2020,03,19,07,02,1.60
2020,03,19,07,03,1.60
2020,03,19,07,04,1.50
2020,03,19,07,05,1.50
2020,03,19,07,06,1.40
2020,03,19,07,07,1.40
2020,03,19,07,08,1.30
2020,03,19,07,09,1.30
2020,03,19,07,10,1.30
2020,03,19,07,11,1.30
2020,03,19,07,12,1.20
2020,03,19,07,13,1.20
2020,03,19,07,14,1.20
2020,03,19,07,15,1.10
2020,03,19,07,16,1.10
2020,03,19,07,17,1.00
2020,03,19,07,18,1.00
2020,03,19,07,19,0.90
2020,03,19,07,20,0.90
2020,03,19,07,21,0.80
2020,03,19,07,22,0.80
2020,03,19,07,23,0.80
2020,03,19,07,24,0.80
2020,03,19,07,25,0.80
2020,03,19,07,26,0.70
2020,03,19,07,27,0.70
2020,03,19,07,28,0.70
2020,03,19,07,29,0.70
2020,03,19,07,30,0.80
2020,03,19,07,31,0.80
2020,03,19,07,32,0.90
2020,03,19,07,33,1.00
2020,03,19,07,34,1.10
2020,03,19,07,35,1.20
2020,03,19,07,36,1.20
2020,03,19,07,37,1.30
2020,03,19,07,38,1.40
2020,03,19,07,39,1.50
2020,03,19,07,40,1.60
2020,03,19,07,41,1.70
2020,03,19,07,42,1.80
2020,03,19,07,43,1.90
2020,03,19,07,44,2.00
2020,03,19,07,45,2.10
2020,03,19,07,46,2.10
2020,03,19,07,47,2.20
2020,03,19,07,48,2.20
2020,03,19,07,49,2.20
2020,03,19,07,50,2.20
2020,03,19,07,51,2.20
2020,03,19,07,52,2.20
2020,03,19,07,53,2.20
2020,03,19,07,54,2.20
2020,03,19,07,55,2.20
2020,03,19,07,56,2.20
2020,03,19,07,57,2.20
2020,03,19,07,58,2.20
2020,03,19,07,59,2.20
2020,03,19,08,00,2.20
2020,03,19,08,01,2.20
2020,03,19,08,02,2.20
2020,03,19,08,03,2.20
2020,03,19,08,04,2.20
2020,03,19,08,05,2.20
2020,03,19,08,06,2.20
2020,03,19,08,07,2.20
2020,03,19,08,08,2.20
2020,03,19,08,09,2.20
2020,03,19,08,10,2.20
2020,03,19,08,11,2.20
2020,03,19,08,12,2.20
2020,03,19,08,13,2.30
2020,03,19,08,14,2.30
2020,03,19,08,15,2.30
2020,03,19,08,16,2.30
2020,03,19,08,17,2.40
2020,03,19,08,18,2.40
2020,03,19,08,19,2.40
2020,03,19,08,20,2.50
2020,03,19,08,21,2.50
2020,03,19,08,22,2.50
2020,03,19,08,23,2.50
2020,03,19,08,24,2.60
2020,03,19,08,25,2.60
2020,03,19,08,26,2.60
2020,03,19,08,27,2.60
2020,03,19,08,28,2.60
2020,03,19,08,29,2.60
2020,03,19,08,30,2.70
2020,03,19,08,31,2.70
2020,03,19,08,32,2.70
2020,03,19,08,33,2.70
2020,03,19,08,34,2.70
2020,03,19,08,35,2.80
2020,03,19,08,36,2.80
2020,03,19,08,37,2.80
2020,03,19,08,38,2.80
2020,03,19,08,39,2.80
2020,03,19,08,40,2.90
2020,03,19,08,41,2.90
2020,03,19,08,42,2.90
2020,03,19,08,43,2.90
2020,03,19,08,44,2.90
2020,03,19,08,45,2.90
2020,03,19,08,46,2.90
2020,03,19,08,47,2.90
2020,03,19,08,48,2.90
2020,03,19,08,49,2.90
2020,03,19,08,50,2.90
2020,03,19,08,51,2.90
2020,03,19,08,52,2.90
2020,03,19,08,53,2.90
2020,03,19,08,54,2.90
2020,03,19,08,55,2.90
2020,03,19,08,56,2.90
2020,03,19,08,57,3.10
2020,03,19,08,58,3.10
2020,03,19,08,59,3.10
2020,03,19,09,00,3.10
2020,03,19,09,01,3.10
2020,03,19,09,02,3.10
2020,03,19,09,03,3.20
2020,03,19,09,04,3.30
2020,03,19,09,05,3.30
2020,03,19,09,06,3.40
2020,03,19,09,07,3.50
2020,03,19,09,08,3.70
2020,03,19,09,09,3.80
2020,03,19,09,10,3.90
2020,03,19,09,11,4.00
2020,03,19,09,12,4.20
2020,03,19,09,13,4.30
2020,03,19,09,14,4.40
2020,03,19,09,15,4.50
2020,03,19,09,16,4.60
2020,03,19,09,17,4.70
2020,03,19,09,18,4.70
2020,03,19,09,19,4.80
2020,03,19,09,20,4.90
2020,03,19,09,21,4.90
2020,03,19,09,22,5.00
2020,03,19,09,23,5.10
2020,03,19,09,24,5.20
2020,03,19,09,25,5.20
2020,03,19,09,26,5.30
2020,03,19,09,27,5.30
2020,03,19,09,28,5.40
2020,03,19,09,29,5.50
2020,03,19,09,30,5.60
2020,03,19,09,31,5.70
2020,03,19,09,32,5.70
2020,03,19,09,33,5.70
2020,03,19,09,34,5.80
2020,03,19,09,35,5.80
2020,03,19,09,36,5.90
2020,03,19,09,37,5.80
2020,03,19,09,38,5.80
2020,03,19,09,39,5.90
2020,03,19,09,40,5.90
2020,03,19,09,41,5.90
2020,03,19,09,42,5.90
2020,03,19,09,43,5.90
2020,03,19,09,44,5.90
2020,03,19,09,45,5.90
2020,03,19,09,46,6.00
2020,03,19,09,47,6.10
2020,03,19,09,48,6.20
2020,03,19,09,49,6.20
2020,03,19,09,50,6.30
2020,03,19,09,51,6.40
2020,03,19,09,52,6.50
2020,03,19,09,53,6.60
2020,03,19,09,54,6.60
2020,03,19,09,55,6.60
2020,03,19,09,56,6.60
2020,03,19,09,57,6.50
2020,03,19,09,58,6.40
2020,03,19,09,59,6.40
2020,03,19,10,00,6.60
2020,03,19,10,01,6.70
2020,03,19,10,02,6.80
2020,03,19,10,03,6.80
2020,03,19,10,04,6.90
2020,03,19,10,05,6.90
2020,03,19,10,06,7.00
2020,03,19,10,07,7.00
2020,03,19,10,08,7.00
2020,03,19,10,09,7.00
2020,03,19,10,10,7.00
2020,03,19,10,11,7.00
2020,03,19,10,12,7.10
2020,03,19,10,13,7.00
2020,03,19,10,14,7.00
2020,03,19,10,15,7.10
2020,03,19,10,16,7.10
2020,03,19,10,17,7.10
2020,03,19,10,18,7.10
2020,03,19,10,19,7.10
2020,03,19,10,20,7.10
2020,03,19,10,21,7.20
2020,03,19,10,22,7.20
2020,03,19,10,23,7.20
2020,03,19,10,24,7.30
2020,03,19,10,25,7.30
2020,03,19,10,26,7.40
2020,03,19,10,27,7.50
2020,03,19,10,28,7.50
2020,03,19,10,29,7.60
2020,03,19,10,30,7.50
2020,03,19,10,31,7.50
2020,03,19,10,32,7.40
2020,03,19,10,33,7.40
2020,03,19,10,34,7.30
2020,03,19,10,35,7.30
2020,03,19,10,36,7.40
2020,03,19,10,37,7.40
2020,03,19,10,38,7.30
2020,03,19,10,39,7.30
2020,03,19,10,40,7.30
2020,03,19,10,41,7.30
2020,03,19,10,42,7.30
2020,03,19,10,43,7.40
2020,03,19,10,44,7.40
2020,03,19,10,45,7.50
2020,03,19,10,46,7.50
2020,03,19,10,47,7.60
2020,03,19,10,48,7.70
2020,03,19,10,49,7.80
2020,03,19,10,50,7.80
2020,03,19,10,51,7.70
2020,03,19,10,52,7.70
2020,03,19,10,53,7.70
2020,03,19,10,54,7.80
2020,03,19,10,55,7.80
2020,03,19,10,56,7.80
2020,03,19,10,57,7.90
2020,03,19,10,58,7.90
2020,03,19,10,59,8.00
2020,03,19,11,00,8.10
2020,03,19,11,01,8.20
2020,03,19,11,02,8.20
2020,03,19,11,03,8.20
2020,03,19,11,04,8.20
2020,03,19,11,05,8.20
2020,03,19,11,06,8.20
2020,03,19,11,07,8.20
2020,03,19,11,08,8.20
2020,03,19,11,09,8.20
2020,03,19,11,10,8.20
2020,03,19,11,11,8.20
2020,03,19,11,12,8.20
2020,03,19,11,13,8.20
2020,03,19,11,14,8.20
2020,03,19,11,15,8.00
2020,03,19,11,16,8.00
2020,03,19,11,17,8.00
2020,03,19,11,18,8.00
2020,03,19,11,19,8.10
2020,03,19,11,20,8.10
2020,03,19,11,21,8.20
2020,03,19,11,22,8.20
2020,03,19,11,23,8.30
2020,03,19,11,24,8.30
2020,03,19,11,25,8.30
2020,03,19,11,26,8.30
2020,03,19,11,27,8.40
2020,03,19,11,28,8.40
2020,03,19,11,29,8.40
2020,03,19,11,30,8.30
2020,03,19,11,31,8.20
2020,03,19,11,32,8.10
2020,03,19,11,33,8.10
2020,03,19,11,34,8.10
2020,03,19,11,35,8.20
2020,03,19,11,36,8.20
2020,03,19,11,37,8.20
2020,03,19,11,38,8.20
2020,03,19,11,39,8.20
2020,03,19,11,40,8.10
2020,03,19,11,41,8.10
2020,03,19,11,42,8.00
2020,03,19,11,43,8.00
2020,03,19,11,44,8.00
2020,03,19,11,45,8.00
2020,03,19,11,46,8.00
2020,03,19,11,47,8.10
2020,03,19,11,48,8.10
2020,03,19,11,49,8.10
2020,03,19,11,50,8.10
2020,03,19,11,51,8.10
2020,03,19,11,52,8.20
2020,03,19,11,53,8.20
2020,03,19,11,54,8.20
2020,03,19,11,55,8.20
2020,03,19,11,56,8.20
2020,03,19,11,57,8.20
2020,03,19,11,58,8.30
2020,03,19,11,59,8.40
2020,03,19,12,00,8.50
2020,03,19,12,01,8.60
2020,03,19,12,02,8.70
2020,03,19,12,03,8.70
2020,03,19,12,04,8.70
2020,03,19,12,05,8.50
2020,03,19,12,06,8.30
2020,03,19,12,07,8.30
2020,03,19,12,08,8.30
2020,03,19,12,09,8.30
2020,03,19,12,10,8.30
2020,03,19,12,11,8.30
2020,03,19,12,12,8.30
2020,03,19,12,13,8.30
2020,03,19,12,14,8.20
2020,03,19,12,15,8.20
2020,03,19,12,16,8.20
2020,03,19,12,17,8.20
2020,03,19,12,18,8.30
2020,03,19,12,19,8.30
2020,03,19,12,20,8.20
2020,03,19,12,21,8.20
2020,03,19,12,22,8.20
2020,03,19,12,23,8.30
2020,03,19,12,24,8.30
2020,03,19,12,25,8.30
2020,03,19,12,26,8.30
2020,03,19,12,27,8.20
2020,03,19,12,28,8.20
2020,03,19,12,29,8.20
2020,03,19,12,30,8.20
2020,03,19,12,31,8.20
2020,03,19,12,32,8.20
2020,03,19,12,33,8.20
2020,03,19,12,34,8.20
2020,03,19,12,35,8.20
2020,03,19,12,36,8.20
2020,03,19,12,37,8.20
2020,03,19,12,38,8.20
2020,03,19,12,39,8.20
2020,03,19,12,40,8.10
2020,03,19,12,41,8.10
2020,03,19,12,42,8.20
2020,03,19,12,43,8.30
2020,03,19,12,44,8.30
2020,03,19,12,45,8.40
2020,03,19,12,46,8.50
2020,03,19,12,47,8.60
2020,03,19,12,48,8.70
2020,03,19,12,49,8.70
2020,03,19,12,50,8.70
2020,03,19,12,51,8.70
2020,03,19,12,52,8.70
2020,03,19,12,53,8.70
2020,03,19,12,54,8.80
2020,03,19,12,55,8.90
2020,03,19,12,56,8.80
2020,03,19,12,57,8.80
2020,03,19,12,58,8.70
2020,03,19,12,59,8.60
2020,03,19,13,00,8.50
2020,03,19,13,01,8.40
2020,03,19,13,02,8.30
2020,03,19,13,03,8.30
2020,03,19,13,04,8.30
2020,03,19,13,05,8.30
2020,03,19,13,06,8.20
2020,03,19,13,07,8.10
2020,03,19,13,08,8.10
2020,03,19,13,09,8.10
2020,03,19,13,10,8.20
2020,03,19,13,11,8.20
2020,03,19,13,12,8.20
2020,03,19,13,13,8.30
2020,03,19,13,14,8.50
2020,03,19,13,15,8.50
2020,03,19,13,16,8.60
2020,03,19,13,17,8.70
2020,03,19,13,18,8.80
2020,03,19,13,19,8.70
2020,03,19,13,20,8.70
2020,03,19,13,21,8.90
2020,03,19,13,22,8.90
2020,03,19,13,23,8.90
2020,03,19,13,24,8.80
2020,03,19,13,25,8.70
2020,03,19,13,26,8.70
2020,03,19,13,27,8.60
2020,03,19,13,28,8.60
2020,03,19,13,29,8.70
2020,03,19,13,30,8.80
2020,03,19,13,31,8.80
2020,03,19,13,32,8.80
2020,03,19,13,33,8.80
2020,03,19,13,34,8.90
2020,03,19,13,35,9.00
2020,03,19,13,36,9.10
2020,03,19,13,37,9.20
2020,03,19,13,38,9.30
2020,03,19,13,39,9.30
2020,03,19,13,40,9.30
2020,03,19,13,41,9.20
2020,03,19,13,42,9.20
2020,03,19,13,43,9.20
2020,03,19,13,44,9.10
2020,03,19,13,45,9.10
2020,03,19,13,46,9.20
2020,03,19,13,47,9.20
2020,03,19,13,48,9.20
2020,03,19,13,49,9.30
2020,03,19,13,50,9.30
2020,03,19,13,51,9.30
2020,03,19,13,52,9.30
2020,03,19,13,53,9.40
2020,03,19,13,54,9.50
2020,03,19,13,55,9.60
2020,03,19,13,56,9.70
2020,03,19,13,57,9.70
2020,03,19,13,58,9.70
2020,03,19,13,59,9.70
2020,03,19,14,00,9.70
2020,03,19,14,01,9.80
2020,03,19,14,02,9.70
2020,03,19,14,03,9.70
2020,03,19,14,04,9.70
2020,03,19,14,05,9.70
2020,03,19,14,06,9.60
2020,03,19,14,07,9.60
2020,03,19,14,08,9.60
2020,03,19,14,09,9.50
2020,03,19,14,10,9.40
2020,03,19,14,11,9.40
2020,03,19,14,12,9.20
2020,03,19,14,13,9.20
2020,03,19,14,14,9.20
2020,03,19,14,15,9.30
2020,03,19,14,16,9.30
2020,03,19,14,17,9.30
2020,03,19,14,18,9.30
2020,03,19,14,19,9.50
2020,03,19,14,20,9.60
2020,03,19,14,21,9.60
2020,03,19,14,22,9.60
2020,03,19,14,23,9.60
2020,03,19,14,24,9.70
2020,03,19,14,25,9.80
2020,03,19,14,26,9.90
2020,03,19,14,27,10.10
2020,03,19,14,28,10.20
2020,03,19,14,29,10.30
2020,03,19,14,30,10.30
2020,03,19,14,31,10.30
2020,03,19,14,32,10.30
2020,03,19,14,33,10.20
2020,03,19,14,34,10.20
2020,03,19,14,35,10.10
2020,03,19,14,36,10.10
2020,03,19,14,37,10.10
2020,03,19,14,38,10.00
2020,03,19,14,39,9.90
2020,03,19,14,40,9.90
2020,03,19,14,41,9.90
2020,03,19,14,42,9.90
2020,03,19,14,43,9.90
2020,03,19,14,44,9.90
2020,03,19,14,45,9.90
2020,03,19,14,46,10.00
2020,03,19,14,47,10.10
2020,03,19,14,48,10.00
2020,03,19,14,49,9.90
2020,03,19,14,50,10.10
2020,03,19,14,51,10.00
2020,03,19,14,52,10.10
2020,03,19,14,53,10.10
2020,03,19,14,54,10.20
2020,03,19,14,55,10.20
2020,03,19,14,56,10.20
2020,03,19,14,57,10.30
2020,03,19,14,58,10.40
2020,03,19,14,59,10.40
2020,03,19,15,00,10.40
2020,03,19,15,01,10.40
2020,03,19,15,02,10.40
2020,03,19,15,03,10.40
2020,03,19,15,04,10.50
2020,03,19,15,05,10.40
2020,03,19,15,06,10.40
2020,03,19,15,07,10.30
2020,03,19,15,08,10.20
2020,03,19,15,09,10.10
2020,03,19,15,10,10.10
2020,03,19,15,11,10.10
2020,03,19,15,12,10.10
2020,03,19,15,13,10.10
2020,03,19,15,14,10.10
2020,03,19,15,15,10.10
2020,03,19,15,16,10.10
2020,03,19,15,17,10.20
2020,03,19,15,18,10.40
2020,03,19,15,19,10.50
2020,03,19,15,20,10.50
2020,03,19,15,21,10.40
2020,03,19,15,22,10.50
2020,03,19,15,23,10.60
2020,03,19,15,24,10.60
2020,03,19,15,25,10.60
2020,03,19,15,26,10.60
2020,03,19,15,27,10.60
2020,03,19,15,28,10.60
2020,03,19,15,29,10.60
2020,03,19,15,30,10.50
2020,03,19,15,31,10.40
2020,03,19,15,32,10.40
2020,03,19,15,33,10.40
2020,03,19,15,34,10.40
2020,03,19,15,35,10.40
2020,03,19,15,36,10.40
2020,03,19,15,37,10.30
2020,03,19,15,38,10.30
2020,03,19,15,39,10.40
2020,03,19,15,40,10.40
2020,03,19,15,41,10.40
2020,03,19,15,42,10.40
2020,03,19,15,43,10.50
2020,03,19,15,44,10.50
2020,03,19,15,45,10.50
2020,03,19,15,46,10.40
2020,03,19,15,47,10.40
2020,03,19,15,48,10.40
2020,03,19,15,49,10.40
2020,03,19,15,50,10.40
2020,03,19,15,51,10.50
2020,03,19,15,52,10.40
2020,03,19,15,53,10.40
2020,03,19,15,54,10.50
2020,03,19,15,55,10.50
2020,03,19,15,56,10.60
2020,03,19,15,57,10.60
2020,03,19,15,58,10.70
2020,03,19,15,59,10.70
2020,03,19,16,00,10.70
2020,03,19,16,01,10.70
2020,03,19,16,02,10.80
2020,03,19,16,03,10.70
2020,03,19,16,04,10.70
2020,03,19,16,05,10.80
2020,03,19,16,06,10.80
2020,03,19,16,07,10.90
2020,03,19,16,08,10.80
2020,03,19,16,09,10.90
2020,03,19,16,10,10.90
2020,03,19,16,11,10.90
2020,03,19,16,12,10.90
2020,03,19,16,13,10.90
2020,03,19,16,14,10.90
2020,03,19,16,15,10.90
2020,03,19,16,16,11.00
2020,03,19,16,17,11.10
2020,03,19,16,18,11.10
2020,03,19,16,19,11.10
2020,03,19,16,20,11.20
2020,03,19,16,21,11.20
2020,03,19,16,22,11.20
2020,03,19,16,23,11.10
2020,03,19,16,24,11.10
2020,03,19,16,25,11.10
2020,03,19,16,26,11.10
2020,03,19,16,27,11.00
2020,03,19,16,28,11.00
2020,03,19,16,29,11.10
2020,03,19,16,30,11.10
2020,03,19,16,31,11.00
2020,03,19,16,32,10.90
2020,03,19,16,33,10.90
2020,03,19,16,34,10.90
2020,03,19,16,35,10.90
2020,03,19,16,36,10.90
2020,03,19,16,37,10.90
2020,03,19,16,38,11.00
2020,03,19,16,39,11.10
2020,03,19,16,40,11.10
2020,03,19,16,41,11.10
2020,03,19,16,42,11.20
2020,03,19,16,43,11.20
2020,03,19,16,44,11.20
2020,03,19,16,45,11.20
2020,03,19,16,46,11.10
2020,03,19,16,47,11.10
2020,03,19,16,48,11.00
2020,03,19,16,49,10.90
2020,03,19,16,50,10.90
2020,03,19,16,51,10.90
2020,03,19,16,52,10.90
2020,03,19,16,53,10.90
2020,03,19,16,54,10.80
2020,03,19,16,55,10.80
2020,03,19,16,56,10.80
2020,03,19,16,57,10.90
2020,03,19,16,58,10.90
2020,03,19,16,59,10.90
2020,03,19,17,00,10.90
2020,03,19,17,01,10.90
2020,03,19,17,02,10.90
2020,03,19,17,03,10.90
2020,03,19,17,04,10.90
2020,03,19,17,05,10.90
2020,03,19,17,06,10.90
2020,03,19,17,07,10.90
2020,03,19,17,08,10.90
2020,03,19,17,09,10.90
2020,03,19,17,10,10.90
2020,03,19,17,11,10.80
2020,03,19,17,12,10.70
2020,03,19,17,13,10.60
2020,03,19,17,14,10.60
2020,03,19,17,15,10.60
2020,03,19,17,16,10.40
2020,03,19,17,17,10.40
2020,03,19,17,18,10.40
2020,03,19,17,19,10.40
2020,03,19,17,20,10.40
2020,03,19,17,21,10.40
2020,03,19,17,22,10.40
2020,03,19,17,23,10.40
2020,03,19,17,24,10.40
2020,03,19,17,25,10.40
2020,03,19,17,26,10.40
2020,03,19,17,27,10.40
2020,03,19,17,28,10.30
2020,03,19,17,29,10.30
2020,03,19,17,30,10.30
2020,03,19,17,31,10.20
2020,03,19,17,32,10.10
2020,03,19,17,33,9.90
2020,03,19,17,34,9.80
2020,03,19,17,35,9.80
2020,03,19,17,36,9.80
2020,03,19,17,37,9.80
2020,03,19,17,38,9.80
2020,03,19,17,39,9.80
2020,03,19,17,40,9.80
2020,03,19,17,41,9.80
2020,03,19,17,42,9.80
2020,03,19,17,43,9.80
2020,03,19,17,44,9.90
2020,03,19,17,45,9.90
2020,03,19,17,46,10.00
2020,03,19,17,47,10.10
2020,03,19,17,48,10.00
2020,03,19,17,49,9.90
2020,03,19,17,50,9.90
2020,03,19,17,51,9.90
2020,03,19,17,52,9.90
2020,03,19,17,53,9.90
2020,03,19,17,54,9.90
2020,03,19,17,55,9.90
2020,03,19,17,56,9.90
2020,03,19,17,57,9.90
2020,03,19,17,58,9.90